STARLINK-36777, 100626

Orbit data source: Space-Track

STARLINK-36777, 100626 is a payload satellite owned by SpaceX/Seattle (US) in LEO that was launched on Sun, 06 Sep 2026 UTC launched from the Air Force Western Test Range (AFWTR). Payload-class satellites include a variety of spacecraft equipped with specific instruments for various scientific and technological missions. These include communications satellites like Starlink; space stations such as the ISS; scientific satellites like the Hubble; Earth observation satellites from companies like Planet Labs, Umbra, and HawkEye 360; GPS; miniature CubeSats for education and research; and military/defense satellites.

Not visible in the next 10 days
Identifier
100626, 2026-204M
Orbit
LEO
Country
Flag of USUS
Related business
Manufacturer
SpaceX/Seattle
Mission
Operational spacecraft
Bus & Motor
STARLINK V2MO, Unknown motor
Mass
575 kg wet, ~530 kg dry
Launch date (UTC)
2026-09-06 (5 days ago)
Launch vehicle
Unknown
Launch site
Air Force Western Test Range (AFWTR)
Object type
Payload
Rocket body
Debris
Shape & HBR
BOX + PAN, 17.7 m
Radar Cross Section
RCS unknown

Expand to show TLE details & history
Last TLE update: 21 hours ago

TLE from 21 hours ago
0 STARLINK-36777
1 A0626U          26253.56617965 -.00909733  28200-3 -15968-2 0  9996
2 A0626  69.9970 266.2396 0005310 273.8355  86.2249 16.01838526   643
Epoch: 2026-09-10T13:35Z
TLE epoch observation values (Epoch: 2026-09-10T13:35:17.921Z)
Latitude
-0.00011°
Longitude
72.81284°
Altitude
271.631 km
Speed
7.745 km/s
True Right ascension
17h 44m 57s
True Declination
0° 00' 00"
Sunlit
Object was in daylight at epoch
Visualization orbit readout
Latitude
Unknown
Longitude
Unknown
Altitude
Unknown
Speed
Unknown
Apparent Right ascension
Unknown
Apparent Declination
Unknown
Sunlit
N/A
Visualization observer readout
Local Sidereal Time
02:29:40
Azimuth
Unknown
Elevation
Unknown
Doppler factor
Unknown
Orbital elements
Apogee altitude
270.711 km
Perigee altitude
263.654 km
Semi-major axis
6,645.319 km
Eccentricity
0.00053
Inclination
69.997°
RAAN
266.2396°
Arg. of periapsis
273.8355°
True anomaly
86.28562°
Mean anomaly
86.2249°
Eccentric anomaly
86.25526°
Mean motion
4.00654 °/min
Orbital period
89.85 mins
BSTAR
-0.0015968
Loading maneuver chart data...
Computing Atmospheric mass density...
Loading historical data...
Loading historical data...
Loading historical data...
Loading historical data...
Loading historical data...
Loading historical data...
Loading historical data...

Documentation

Showing up to 5 results
|